• In Hungary
  • List of Countries
  • For 7 days
  • Water Temperature
  • Satellite Maps
  • Weather Map
  • News
  • Weather Widgets
  • user-avatar
    Login

    Hourly Weather Novotroickoe

    Today, 16 July, Monday

    Time Temperature Precipitation Wind Pressure Humidity
    00:00 +20°C° 2.3 mm 3 mps 737 mmHg 92%
    01:00 +20°C° 0.3 mm 3 mps 737 mmHg 92%
    02:00 +20°C° 0.3 mm 3 mps 737 mmHg 92%
    03:00 +20°C° 0.3 mm 3 mps 737 mmHg 92%
    04:00 +20°C° 0 mm 3 mps 737 mmHg 92%
    05:00 +20°C° 0 mm 3 mps 737 mmHg 92%
    06:00 +20°C° 0 mm 3 mps 737 mmHg 92%
    07:00 +21°C° 0.3 mm 4 mps 737 mmHg 88%
    08:00 +23°C° 0.3 mm 4 mps 737 mmHg 85%
    09:00 +25°C° 0.3 mm 5 mps 737 mmHg 81%
    10:00 +26°C° 0.6 mm 5 mps 737 mmHg 77%
    11:00 +27°C° 0.6 mm 5 mps 737 mmHg 73%
    12:00 +28°C° 0.6 mm 5 mps 737 mmHg 69%
    13:00 +28°C° 0.7 mm 5 mps 736 mmHg 69%
    14:00 +28°C° 0.7 mm 5 mps 736 mmHg 69%
    15:00 +28°C° 0.7 mm 5 mps 736 mmHg 69%
    16:00 +28°C° 0.7 mm 5 mps 736 mmHg 73%
    17:00 +27°C° 0.7 mm 4 mps 735 mmHg 77%
    18:00 +27°C° 0.7 mm 4 mps 735 mmHg 81%
    19:00 +25°C° 0.4 mm 4 mps 735 mmHg 83%
    20:00 +23°C° 0.4 mm 4 mps 735 mmHg 85%
    21:00 +22°C° 0.4 mm 4 mps 735 mmHg 88%
    22:00 +22°C° 0.2 mm 4 mps 735 mmHg 89%
    23:00 +21°C° 0.2 mm 4 mps 735 mmHg 90%

    Tomorrow, 17 July, Tuesday

    Time Temperature Precipitation Wind Pressure Humidity
    00:00 +21°C° 0.2 mm 4 mps 734 mmHg 92%
    01:00 +21°C° 0.1 mm 4 mps 734 mmHg 92%
    02:00 +21°C° 0.1 mm 4 mps 734 mmHg 93%
    03:00 +20°C° 0.1 mm 4 mps 734 mmHg 93%
    04:00 +21°C° 0.6 mm 5 mps 734 mmHg 93%
    05:00 +21°C° 0.6 mm 5 mps 734 mmHg 93%
    06:00 +21°C° 0.6 mm 6 mps 733 mmHg 93%
    07:00 +21°C° 0 mm 6 mps 733 mmHg 91%
    08:00 +22°C° 0 mm 6 mps 733 mmHg 89%
    09:00 +23°C° 0 mm 6 mps 733 mmHg 87%
    10:00 +23°C° 0.4 mm 6 mps 733 mmHg 88%
    11:00 +22°C° 0.4 mm 6 mps 733 mmHg 89%
    12:00 +22°C° 0.4 mm 6 mps 733 mmHg 90%
    13:00 +22°C° 0.3 mm 5 mps 733 mmHg 89%
    14:00 +23°C° 0.3 mm 5 mps 733 mmHg 88%
    15:00 +23°C° 0.3 mm 5 mps 733 mmHg 86%
    16:00 +22°C° 0.6 mm 5 mps 733 mmHg 88%
    17:00 +22°C° 0.6 mm 4 mps 733 mmHg 90%
    18:00 +21°C° 0.6 mm 4 mps 733 mmHg 92%
    19:00 +21°C° 0.8 mm 4 mps 733 mmHg 94%
    20:00 +20°C° 0.8 mm 4 mps 733 mmHg 95%
    21:00 +20°C° 0.8 mm 3 mps 733 mmHg 96%
    22:00 +20°C° 1 mm 3 mps 733 mmHg 96%
    23:00 +20°C° 1 mm 3 mps 733 mmHg 97%

    Day after tomorrow, 18 July, Wednesday

    Time Temperature Precipitation Wind Pressure Humidity
    00:00 +20°C° 1 mm 3 mps 733 mmHg 97%
    01:00 +19°C° 0.9 mm 3 mps 733 mmHg 97%
    02:00 +19°C° 0.9 mm 2 mps 733 mmHg 97%
    03:00 +19°C° 0.9 mm 2 mps 733 mmHg 97%
    04:00 +19°C° 0.7 mm 2 mps 733 mmHg 97%
    05:00 +19°C° 0.7 mm 2 mps 733 mmHg 97%
    06:00 +19°C° 0.7 mm 2 mps 733 mmHg 96%
    07:00 +19°C° 0.7 mm 2 mps 733 mmHg 95%
    08:00 +20°C° 0.7 mm 3 mps 733 mmHg 93%
    09:00 +20°C° 0.7 mm 3 mps 733 mmHg 91%
    10:00 +21°C° 0.1 mm 3 mps 733 mmHg 86%
    11:00 +22°C° 0.1 mm 3 mps 734 mmHg 81%
    12:00 +25°C° 0.1 mm 3 mps 734 mmHg 76%
    13:00 +25°C° 0.1 mm 3 mps 734 mmHg 72%
    14:00 +26°C° 0.1 mm 3 mps 734 mmHg 69%
    15:00 +27°C° 0.1 mm 3 mps 734 mmHg 66%
    16:00 +26°C° 0.5 mm 2 mps 734 mmHg 69%
    17:00 +26°C° 0.5 mm 2 mps 734 mmHg 73%
    18:00 +26°C° 0.5 mm 2 mps 734 mmHg 76%
    19:00 +25°C° 0.1 mm 2 mps 735 mmHg 80%
    20:00 +23°C° 0.1 mm 2 mps 735 mmHg 84%
    21:00 +21°C° 0.1 mm 2 mps 735 mmHg 88%
    22:00 +20°C° 0 mm 2 mps 735 mmHg 89%
    23:00 +20°C° 0 mm 2 mps 735 mmHg 91%

    19 July, Thursday

    Time Temperature Precipitation Wind Pressure Humidity
    00:00 +19°C° 0 mm 2 mps 736 mmHg 93%
    01:00 +19°C° 0 mm 2 mps 736 mmHg 93%
    02:00 +18°C° 0 mm 2 mps 736 mmHg 94%
    03:00 +18°C° 0 mm 2 mps 736 mmHg 94%
    04:00 +18°C° 0.1 mm 2 mps 736 mmHg 94%
    05:00 +18°C° 0.1 mm 2 mps 736 mmHg 93%
    06:00 +19°C° 0.1 mm 2 mps 737 mmHg 93%
    07:00 +19°C° 0.3 mm 3 mps 737 mmHg 91%
    08:00 +20°C° 0.3 mm 3 mps 737 mmHg 90%
    09:00 +20°C° 0.3 mm 4 mps 737 mmHg 89%
    10:00 +21°C° 0.3 mm 4 mps 737 mmHg 84%
    11:00 +23°C° 0.3 mm 5 mps 737 mmHg 80%
    12:00 +25°C° 0.3 mm 5 mps 737 mmHg 75%
    13:00 +25°C° 0.6 mm 5 mps 737 mmHg 76%
    14:00 +25°C° 0.6 mm 5 mps 737 mmHg 77%
    15:00 +25°C° 0.6 mm 5 mps 737 mmHg 78%
    16:00 +25°C° 0.4 mm 5 mps 737 mmHg 79%
    17:00 +25°C° 0.4 mm 4 mps 737 mmHg 81%
    18:00 +23°C° 0.4 mm 4 mps 737 mmHg 82%
    19:00 +23°C° 0.5 mm 4 mps 737 mmHg 85%
    20:00 +22°C° 0.5 mm 4 mps 737 mmHg 87%
    21:00 +21°C° 0.5 mm 4 mps 737 mmHg 90%
    22:00 +21°C° 0.4 mm 4 mps 737 mmHg 91%
    23:00 +21°C° 0.4 mm 4 mps 737 mmHg 91%

    20 July, Friday

    Time Temperature Precipitation Wind Pressure Humidity
    00:00 +21°C° 0.4 mm 4 mps 736 mmHg 92%
    01:00 +20°C° 0.4 mm 4 mps 736 mmHg 93%
    02:00 +20°C° 0.4 mm 4 mps 736 mmHg 94%
    03:00 +20°C° 0.4 mm 4 mps 736 mmHg 95%
    04:00 +20°C° 0 mm 4 mps 736 mmHg 95%
    05:00 +20°C° 0 mm 3 mps 736 mmHg 95%
    06:00 +20°C° 0 mm 3 mps 737 mmHg 95%
    07:00 +21°C° 0 mm 3 mps 737 mmHg 91%
    08:00 +24°C° 0 mm 3 mps 737 mmHg 87%
    09:00 +25°C° 0 mm 3 mps 737 mmHg 83%
    10:00 +26°C° 0 mm 4 mps 737 mmHg 78%
    11:00 +27°C° 0 mm 4 mps 737 mmHg 73%
    12:00 +28°C° 0 mm 4 mps 737 mmHg 68%
    13:00 +28°C° 0.4 mm 4 mps 737 mmHg 68%
    14:00 +29°C° 0.4 mm 4 mps 737 mmHg 67%
    15:00 +29°C° 0.4 mm 4 mps 737 mmHg 66%
    16:00 +29°C° 0.7 mm 4 mps 737 mmHg 70%
    17:00 +28°C° 0.7 mm 3 mps 737 mmHg 74%
    18:00 +28°C° 0.7 mm 3 mps 737 mmHg 77%
    19:00 +26°C° 0.1 mm 3 mps 737 mmHg 80%
    20:00 +25°C° 0.1 mm 3 mps 737 mmHg 84%
    21:00 +23°C° 0.1 mm 2 mps 737 mmHg 87%
    22:00 +23°C° 0 mm 2 mps 737 mmHg 88%
    23:00 +21°C° 0 mm 2 mps 737 mmHg 88%

    21 July, Saturday

    Time Temperature Precipitation Wind Pressure Humidity
    00:00 +21°C° 0 mm 2 mps 737 mmHg 89%
    01:00 +21°C° 0.1 mm 2 mps 737 mmHg 90%
    02:00 +20°C° 0.1 mm 3 mps 737 mmHg 92%
    03:00 +20°C° 0.1 mm 3 mps 737 mmHg 93%
    04:00 +20°C° 0 mm 3 mps 737 mmHg 92%
    05:00 +20°C° 0 mm 2 mps 737 mmHg 92%
    06:00 +20°C° 0 mm 2 mps 738 mmHg 92%
    07:00 +22°C° 0.1 mm 3 mps 738 mmHg 88%
    08:00 +24°C° 0.1 mm 3 mps 738 mmHg 84%
    09:00 +26°C° 0.1 mm 4 mps 738 mmHg 81%
    10:00 +27°C° 0.9 mm 4 mps 738 mmHg 76%
    11:00 +28°C° 0.9 mm 4 mps 738 mmHg 72%
    12:00 +29°C° 0.9 mm 4 mps 738 mmHg 68%
    13:00 +29°C° 0.8 mm 4 mps 738 mmHg 67%
    14:00 +29°C° 0.8 mm 4 mps 738 mmHg 66%
    15:00 +30°C° 0.8 mm 4 mps 738 mmHg 66%
    16:00 +29°C° 0.4 mm 4 mps 737 mmHg 69%
    17:00 +29°C° 0.4 mm 3 mps 737 mmHg 73%
    18:00 +28°C° 0.4 mm 3 mps 737 mmHg 77%
    19:00 +27°C° 0.1 mm 3 mps 737 mmHg 80%
    20:00 +25°C° 0.1 mm 3 mps 737 mmHg 83%
    21:00 +24°C° 0.1 mm 3 mps 737 mmHg 86%
    22:00 +22°C° 0 mm 3 mps 737 mmHg 87%
    23:00 +22°C° 0 mm 3 mps 737 mmHg 88%
    Show more